QXE2285 KSFO-KPSP

Flight info

Callsign QXE2285
Flight time N/A
Altitude 33000
Route WESLA5 KAYEX LOSHN CLASN SIZLR4
Aircraft E75L/M-SDE3GILORVW/S

Departure

Time 2026-05-06 16:36
Airport San Francisco International Airport (KSFO)

Arrival

Time N/A
Airport Palm Springs International Airport (KPSP)
Time Latitude Longitude Altitude Speed Heading
2026-05-06 15:37 37.61268 -122.38385 20 ft 0 kts 298°
2026-05-06 16:02 37.61268 -122.38384 20 ft 1 kts 298°
2026-05-06 16:02 37.61258 -122.38360 20 ft 2 kts 298°
2026-05-06 16:02 37.61254 -122.38331 20 ft 4 kts 242°
2026-05-06 16:02 37.61273 -122.38310 20 ft 4 kts 208°
2026-05-06 16:03 37.61289 -122.38300 20 ft 0 kts 207°
2026-05-06 16:18 37.61268 -122.38385 20 ft 0 kts 298°
2026-05-06 16:24 37.61268 -122.38384 20 ft 1 kts 298°
2026-05-06 16:25 37.61258 -122.38360 20 ft 2 kts 298°
2026-05-06 16:25 37.61254 -122.38332 20 ft 4 kts 243°
2026-05-06 16:25 37.61273 -122.38310 20 ft 4 kts 208°
2026-05-06 16:25 37.61289 -122.38300 20 ft 0 kts 207°
2026-05-06 16:27 37.61286 -122.38301 20 ft 2 kts 207°
2026-05-06 16:27 37.61250 -122.38315 20 ft 8 kts 181°
2026-05-06 16:28 37.61191 -122.38295 20 ft 9 kts 171°
2026-05-06 16:28 37.61125 -122.38322 20 ft 11 kts 210°
2026-05-06 16:28 37.61055 -122.38369 20 ft 12 kts 205°
2026-05-06 16:28 37.60995 -122.38414 20 ft 9 kts 214°
2026-05-06 16:29 37.60942 -122.38409 20 ft 9 kts 133°
2026-05-06 16:29 37.60906 -122.38342 20 ft 10 kts 123°
2026-05-06 16:29 37.60876 -122.38259 20 ft 11 kts 96°
2026-05-06 16:29 37.60863 -122.38175 20 ft 9 kts 110°
2026-05-06 16:30 37.60835 -122.38096 20 ft 11 kts 117°
2026-05-06 16:30 37.60812 -122.38038 20 ft 12 kts 116°
2026-05-06 16:30 37.60758 -122.37901 20 ft 14 kts 117°
2026-05-06 16:30 37.60769 -122.37820 20 ft 8 kts 29°
2026-05-06 16:31 37.60822 -122.37785 20 ft 10 kts 28°
2026-05-06 16:31 37.60895 -122.37736 20 ft 14 kts 27°
2026-05-06 16:31 37.60996 -122.37669 20 ft 18 kts 28°
2026-05-06 16:31 37.61120 -122.37590 20 ft 21 kts 29°
2026-05-06 16:32 37.61257 -122.37497 20 ft 23 kts 26°
2026-05-06 16:32 37.61404 -122.37400 20 ft 24 kts 26°
2026-05-06 16:32 37.61536 -122.37287 20 ft 23 kts 59°
2026-05-06 16:32 37.61547 -122.37101 20 ft 21 kts 116°
2026-05-06 16:33 37.61472 -122.36935 20 ft 22 kts 124°
2026-05-06 16:33 37.61379 -122.36799 20 ft 19 kts 125°
2026-05-06 16:33 37.61319 -122.36668 20 ft 17 kts 119°
2026-05-06 16:34 37.61201 -122.36391 20 ft 20 kts 119°
2026-05-06 16:34 37.61136 -122.36235 20 ft 21 kts 117°
2026-05-06 16:34 37.61064 -122.36069 20 ft 21 kts 115°
2026-05-06 16:34 37.61072 -122.35925 20 ft 13 kts 49°
2026-05-06 16:35 37.61145 -122.35874 20 ft 13 kts 26°
2026-05-06 16:35 37.61204 -122.35913 20 ft 11 kts 291°
2026-05-06 16:35 37.61300 -122.36144 20 ft 66 kts 298°
2026-05-06 16:35 37.61649 -122.36974 20 ft 143 kts 298°
2026-05-06 16:36 37.62188 -122.38291 260 ft 191 kts 297°
2026-05-06 16:36 37.62879 -122.39917 782 ft 229 kts 297°
2026-05-06 16:36 37.63690 -122.41777 1532 ft 253 kts 298°
2026-05-06 16:36 37.64578 -122.43792 2292 ft 273 kts 298°
2026-05-06 16:37 37.65507 -122.45910 3400 ft 270 kts 298°
2026-05-06 16:37 37.66389 -122.47937 4849 ft 257 kts 297°
2026-05-06 16:37 37.66880 -122.50019 6216 ft 243 kts 271°
2026-05-06 16:37 37.66591 -122.52049 7491 ft 230 kts 248°
2026-05-06 16:38 37.65774 -122.53763 8544 ft 229 kts 229°
2026-05-06 16:38 37.64522 -122.55062 9409 ft 239 kts 208°
2026-05-06 16:38 37.62885 -122.55764 10070 ft 264 kts 186°
2026-05-06 16:38 37.60978 -122.55476 10647 ft 290 kts 160°
2026-05-06 16:39 37.59042 -122.54465 11362 ft 311 kts 157°
2026-05-06 16:39 37.57022 -122.53278 12104 ft 330 kts 154°
2026-05-06 16:39 37.54952 -122.51933 13072 ft 338 kts 152°
2026-05-06 16:39 37.52862 -122.50521 14113 ft 344 kts 152°
2026-05-06 16:40 37.50759 -122.49025 15086 ft 350 kts 149°
2026-05-06 16:40 37.48742 -122.47276 15960 ft 357 kts 137°
2026-05-06 16:40 37.47089 -122.44909 16842 ft 362 kts 129°
2026-05-06 16:40 37.45537 -122.42381 17662 ft 368 kts 128°
2026-05-06 16:41 37.43951 -122.39819 18455 ft 373 kts 129°
2026-05-06 16:41 37.42322 -122.37250 19206 ft 379 kts 129°
2026-05-06 16:41 37.40659 -122.34658 19928 ft 384 kts 129°
2026-05-06 16:41 37.38963 -122.32029 20619 ft 389 kts 129°
2026-05-06 16:42 37.37249 -122.29378 21273 ft 393 kts 129°
2026-05-06 16:42 37.35511 -122.26692 21899 ft 398 kts 129°
2026-05-06 16:42 37.33764 -122.23992 22497 ft 402 kts 129°
2026-05-06 16:42 37.31978 -122.21233 23073 ft 407 kts 129°
2026-05-06 16:43 37.30184 -122.18463 23623 ft 411 kts 129°
2026-05-06 16:43 37.28369 -122.15664 24143 ft 415 kts 129°
2026-05-06 16:43 37.26538 -122.12842 24635 ft 419 kts 129°
2026-05-06 16:43 37.24690 -122.09994 25083 ft 423 kts 129°
2026-05-06 16:44 37.22827 -122.07124 25522 ft 426 kts 129°
2026-05-06 16:44 37.20950 -122.04234 25930 ft 429 kts 129°
2026-05-06 16:44 37.19045 -122.01304 26121 ft 438 kts 129°
2026-05-06 16:44 37.17010 -121.98172 26766 ft 311 kts 129°
2026-05-06 16:45 37.16112 -121.96783 25947 ft 322 kts 129°